Regional Weather Roundup
Issued by NWS Charleston, SC

Current Version | Previous Version | Graphics & Text | Print | Product List | Glossary On
Versions: 1 2 3 4 5 6 7 8 9 10 11 12 13 14 15 16 17 18 19 20 21 22 23 24 25 26 27 28 29 30 31 32 33 34 35 36 37 38 39 40 41 42 43 44 45 46 47 48 49 50
000 ASUS42 KCHS 152327 RWRCHS Regional Weather Roundup National Weather Service Charleston SC 600 PM EST MON JAN 15 2018 NOTE: "fair" indicates few or no clouds below 12,000 feet with no significant weather and/or obstructions to visibility. Not all stations are quality controlled. Use data with caution, especially dewpoint observations. SCZ027-030-031-034>040-042>050-160000- ...Southeast South Carolina... CITY SKY/WX TMP DP RH WIND PRES REMARKS N Charleston FAIR 39 18 42 N8 30.44R WCI 33 Waterfront Prk NOT AVBL Mount Pleasant FAIR 39 23 52 CALM 30.45R Johns Island FAIR 41 21 45 CALM 30.45R Pinopolis N/A 43 25 49 N7 30.36R Moncks Corner FAIR 36 21 55 CALM 30.44R Summerville FAIR 37 19 48 CALM 30.46R Beaufort MCAS FAIR 40 23 50 N6 30.44R WCI 36 Beaufort Arpt FAIR 41 27 56 N6 30.44R Hilton Head Is CLEAR 45 25 45 NW5 30.44R Walterboro FAIR 37 21 52 CALM 30.46R Allendale FAIR 39 21 48 CALM 30.44R ...Southern Midlands and Pee Dee... CITY SKY/WX TMP DP RH WIND PRES REMARKS Georgetown FAIR 37 18 44 N3 30.45R Kingstree FAIR 34 18 51 CALM 30.45R Orangeburg FAIR 41 16 36 CALM 30.44R Barnwell N/A 39 23 52 CALM 30.44R Aiken FAIR 36 19 51 CALM 30.46R Manning FAIR 36 19 51 MISG 30.45R Columbia FAIR 39 19 44 W5 30.44R WCI 36 Sumter FAIR 41 12 31 CALM 30.42R Florence FAIR 38 11 32 N5 30.45R WCI 34 Myrtle Beach FAIR 41 19 41 N5 30.44S N Myrtle Beach FAIR 40 21 46 N3 30.42S $$ GAZ063-065-086>088-099>101-113>116-118-119-134>141-150-160000- ...Southeast Georgia... CITY SKY/WX TMP DP RH WIND PRES REMARKS Savannah Arpt FAIR 43 22 43 N6 30.44R Hunter AAF FAIR 47 20 34 CALM 30.41R Fort Stewart FAIR 44 28 54 N5 30.41R Statesboro FAIR 38 27 62 CALM 30.44R Sylvania FAIR 40 28 63 CALM 30.45R Claxton FAIR 40 31 67 CALM 30.43S ...CSRA, Central and far Southeast Georgia... CITY SKY/WX TMP DP RH WIND PRES REMARKS Thomson FAIR 37 22 54 SE5 30.47S WCI 33 Augusta-Bush FAIR 42 20 41 CALM 30.43S Augusta-Daniel FAIR 44 19 36 CALM 30.43R Swainsboro FAIR 41 30 65 E3 30.43S Vidalia FAIR 45 28 53 NE5 30.42R Eastman FAIR 45 19 35 E3 30.45R Hazlehurst FAIR 45 21 38 CALM 30.41R Alma FAIR 47 28 47 CALM 30.41R Waycross FAIR 44 26 49 CALM 30.42R Jesup FAIR 46 27 46 CALM 30.43R Baxley FAIR 41 30 65 CALM 30.41S Brunswick FAIR 37 30 75 NE3 30.44R Saint Simons FAIR 43 31 62 E6 30.42R $$ SCZ027-028-034-036>038-045-046-048>050-GAZ119-141-160000- ...Lake and Supplemental Coastal Observations... STATION/POSITION TIME TEMP WIND PRES WAVE SWELL AIR SEA DIR/SP/G HT/PER HT/PER/DIR (UTC) (F) (DEG/KT/KT) (MB) (FT/S) (FT/S/D) Winyah Bay 2230 42 350/ 3 1030.0S Lake Murray 2250 41 190/ 2/ 4 1029.8R ACE Basin NERRS 2245 43 350/ 1 1030.0S Fort Pulaski 2300 46 46 50/ 7/ 8 1030.8 Sapelo Island 2300 42 90/ 4 1030.0 $$ ANZ835-935-AMZ111-154-330-350-352-354-370-450-454-472-160000- ...C-MAN and Buoy Observations... STATION/POSITION TIME TEMP WIND PRES WAVE SWELL AIR SEA DIR/SP/G HT/PER HT/PER/DIR (UTC) (F) (DEG/KT/KT) (MB) (FT/S) (FT/S/D) Buoy 41004 2310 48 70 360/ 14/ 19 1029.8 Buoy 41008 2250 45 50 60/ 10/ 12 1030.1R 4/10 3/100/10 Folly Beach CMAN 2300 42 330/ 6/ 7 1031.1R Capers Nearshore 2208 43 30/ 12/ 14 1029.3F Fripp Nearshore 2308 43 47 360/ 8/ 10 1029.6R STATION/POSITION TIME TEMP WIND PRES WAVE SWELL AIR SEA DIR/SP/G HT/PER HT/PER/DIR (UTC) (F) (DEG/KT/KT) (MB) (FT/S) (FT/S/D) 5E St. Marys GA 2230 50 N/A 5/ 9 2/ 80/11 Frying Pan Buoy 2310 46 59 340/ 14/ 17 1029.4 Buoy 41025 2310 44 70 350/ 19/ 27 1028.9 Cape Lookout NC 2300 340/ 14/ 16 1029.8R Buoy 41002 2250 64 70 20/ 19/ 23 1024.0R 11/ 9 8/ 50/ 9 Buoy 41010 NOT AVBL St Augustine FL 2300 47 52 10/ 19/ 20 1029.5S $$

USA.gov is the U.S. government's official web portal to all federal, state and local government web resources and services.